[[{"header":{"parameterUnit":"m.s-1","parameterCategory":1,"la1":30.2991,"la2":30.254,"lo1":-89.0895,"lo2":-89.0444,"dy":0.0017,"dx":0.0017,"nx":28,"ny":28,"refTime":"2023-10-06T09:00:00:Z","depth":0,"parameterNumber":2,"parameterNumberName":"U-component_of_WINDS"},"data":[0,0,0,0,0,0,0,0,0,0,0,0,0,0,0,0,0,0,0,0,0,0,0,0,0,0,0,0,0,0,0,0,0,0,0,0,0,0,0,0,0,0,0,0,0,0,0,0,0,0,0,0,0,0,0,0,0,0,-2.1115,-2.1114,0,-2.0979,-2.0977,-2.0975,-2.0799,-2.0796,-2.0793,-2.079,-2.0654,-2.0653,-2.0652,0,0,0,0,0,0,0,0,0,0,0,0,0,-2.123,-2.1228,-2.1115,-2.1114,-2.1112,-2.0979,-2.0977,-2.0975,-2.0799,-2.0796,-2.0792,-2.0789,-2.0654,-2.0653,-2.0652,0,0,0,0,0,0,0,0,0,0,0,0,0,-2.1146,-2.1228,-2.1116,-2.1008,-2.0997,-2.0979,-2.0977,-2.0975,-2.08,-2.0796,-2.0791,-2.0787,-2.0654,-2.0653,-2.0652,-2.0729,0,0,-2.0647,-2.0647,0,0,0,0,0,0,0,0,-2.115,-2.1141,-2.1025,-2.1015,-2.1003,-2.0901,-2.0967,-2.0892,-2.0801,-2.0875,-2.079,-2.0785,-2.074,-2.0731,-2.0715,-2.0723,-2.0717,-2.0647,-2.0646,-2.0646,-2.0645,0,0,0,0,0,0,0,-2.1157,-2.1146,-2.1061,-2.1024,-2.101,-2.0968,-2.0952,-2.0952,-2.0833,-2.0868,-2.0855,-2.0841,-2.0733,-2.0717,-2.0711,-2.0715,-2.0647,-2.0646,-2.0645,-2.0645,-2.0786,-2.0791,0,0,0,0,0,0,-2.1178,-2.1152,-2.1065,-2.1057,-2.1067,-2.097,-2.0951,-2.0938,-2.0833,-2.0813,-2.0845,-2.0833,-2.0721,-2.0712,-2.0705,-2.0793,-2.0646,-2.0644,-2.0644,-2.0782,-2.0787,-2.0792,0,0,0,0,0,0,-2.1181,-2.1172,-2.1071,-2.1101,-2.1085,-2.0973,-2.096,-2.0938,-2.0921,-2.0815,-2.0794,-2.085,-2.0718,-2.0707,-2.0726,-2.0786,-2.0644,-2.0642,-2.0776,-2.0783,-2.079,-2.0969,0,0,0,0,0,0,-2.1185,-2.1174,-2.1201,-2.1103,-2.1084,-2.1093,-2.0963,-2.0938,-2.0919,-2.0903,-2.0814,-2.0796,-2.0713,-2.0729,-2.0724,-2.0782,-2.0641,-2.077,-2.0779,-2.0787,-2.0957,-2.0981,-2.1001,0,0,0,0,0,-2.119,-2.1256,-2.1203,-2.1193,-2.1115,-2.1096,-2.1086,-2.0989,-2.0925,-2.0952,-2.0885,-2.0798,-2.078,-2.0732,-2.0726,-2.0783,-2.0766,-2.0777,-2.0787,-2.0947,-2.0976,-2.1001,0,0,0,0,0,0,-2.1363,-2.1241,-2.1181,-2.1217,-2.1169,-2.1067,-2.1098,-2.1022,-2.0991,-2.0978,-2.086,-2.0841,-2.0876,-2.083,-2.078,-2.0856,-2.076,-2.077,-2.0885,-2.0911,-2.0933,-2.0945,-2.064,0,0,0,0,0,-2.1406,-2.1399,-2.1293,-2.1336,-2.1314,-2.1211,-2.1199,-2.1129,-2.1074,-2.1053,-2.0986,-2.0938,-2.0922,-2.0913,-2.0892,-2.0949,-2.093,-2.0986,-2.1008,-2.1027,-2.1038,-2.107,-2.1095,-2.0826,-2.0826,-2.0826,0,0,-2.1493,-2.1426,-2.1429,-2.1369,-2.1323,-2.1322,-2.1195,-2.1197,-2.1196,-2.1054,-2.1068,-2.1019,-2.0957,-2.0997,-2.1011,-2.096,-2.1108,-2.104,-2.1056,-2.1056,-2.1083,-2.1109,-2.1132,-2.0833,-2.0832,-2.0831,0,0,-2.1654,-2.16,-2.1632,-2.1589,-2.1522,-2.1453,-2.1462,-2.1372,-2.1333,-2.1346,-2.1241,-2.1238,-2.1211,-2.1173,-2.115,-2.1302,-2.1223,-2.1298,-2.1415,-2.1448,-2.1469,-2.1488,-2.1546,-2.1568,-2.1308,-2.1309,-2.1309,0,-2.1772,-2.1764,-2.1658,-2.1669,-2.1648,-2.1519,-2.1553,-2.1516,-2.1446,-2.1436,-2.138,-2.1347,-2.1295,-2.1327,-2.1365,-2.1349,-2.1358,-2.1308,-2.1474,-2.1492,-2.1507,-2.1562,-2.1584,-2.1318,-2.1317,-2.1316,-2.1315,0,-2.1915,-2.1912,-2.1946,-2.1882,-2.1865,-2.1887,-2.1787,-2.1782,-2.1715,-2.1654,-2.1671,-2.1606,-2.1572,-2.1573,-2.1507,-2.1598,-2.1569,-2.1496,-2.1398,-2.1545,-2.1595,-2.1614,-2.1333,-2.1329,-2.1326,-2.1324,0,0,-2.2179,-2.206,-2.2075,-2.2047,-2.1964,-2.1961,-2.198,-2.1946,-2.1947,-2.1903,-2.1919,-2.1901,-2.1833,-2.1808,-2.1736,-2.1765,-2.1896,-2.1688,-2.1685,-2.1733,-2.1998,-2.2057,-2.2083,-2.1842,-2.1845,-2.1848,-2.2005,0,-2.2327,-2.2351,-2.2258,-2.2307,-2.2306,-2.2186,-2.2202,-2.2156,-2.21,-2.2093,-2.203,-2.2022,-2.1931,-2.1916,-2.1938,-2.1875,-2.1948,-2.1862,-2.1859,-2.186,-2.1882,-2.2108,-2.2169,-2.232,-2.2023,-2.2026,-2.2028,0,-2.2502,-2.247,-2.252,-2.244,-2.2436,-2.2452,-2.2417,-2.241,-2.2356,-2.2314,-2.2289,-2.2206,-2.2222,-2.2127,-2.215,-2.2094,-2.2088,-2.2057,-2.206,-2.2059,-2.1956,-2.2117,-2.2365,-2.239,-2.2057,-2.2055,-2.2053,0,-2.2697,-2.2665,-2.2692,-2.2671,-2.2577,-2.2593,-2.2555,-2.2497,-2.2484,-2.2454,-2.2445,-2.2417,-2.2403,-2.2385,-2.2299,-2.2236,-2.2334,-2.223,-2.2303,-2.2306,-2.2331,-2.2332,-2.2586,-2.2321,-2.2321,-2.232,-2.232,0,-2.2873,-2.291,-2.2779,-2.2796,-2.2835,-2.2729,-2.2771,-2.2721,-2.2671,-2.2679,-2.2572,-2.2582,-2.2466,-2.2464,-2.2397,-2.243,-2.2423,-2.2392,-2.2374,-2.2404,-2.2409,-2.24,-2.2389,-2.2326,-2.2325,-2.2324,-2.2323,0,-2.3098,-2.3011,-2.3033,-2.2944,-2.2922,-2.2956,-2.288,-2.2894,-2.2832,-2.2843,-2.284,-2.2744,-2.2737,-2.2649,-2.2621,-2.2577,-2.2638,-2.2598,-2.2657,-2.2646,-2.2725,-2.2721,-2.2987,-2.3018,-2.273,-2.2733,-2.2735,0,-2.3218,-2.3243,-2.3158,-2.3155,-2.3123,-2.3119,-2.3107,-2.3005,-2.2997,-2.2941,-2.2963,-2.2947,-2.2929,-2.2924,-2.2853,-2.2834,-2.2796,-2.289,-2.2792,-2.2823,-2.2803,-2.2805,-2.2809,-2.2912,-2.2916,-2.2919,-2.2921,0,-2.3443,-2.34,-2.3385,-2.3358,-2.3346,-2.3319,-2.3286,-2.329,-2.3179,-2.3176,-2.3167,-2.3154,-2.3128,-2.3116,-2.3084,-2.3047,-2.2969,-2.2953,-2.2969,-2.3002,-2.3037,-2.3024,-2.2718,-2.2947,-2.2945,-2.2943,-2.2941,-2.294,-2.3621,-2.3641,-2.3585,-2.3574,-2.3539,-2.3511,-2.3522,-2.3462,-2.3453,-2.3424,-2.3365,-2.3368,-2.3318,-2.3267,-2.3238,-2.324,-2.3192,-2.3215,-2.3221,-2.323,-2.3249,-2.3033,-2.3234,-2.3233,-2.3232,-2.3231,-2.323,0,-2.3845,-2.3804,-2.3795,-2.3753,-2.3746,-2.367,-2.3631,-2.3631,-2.3634,-2.3594,-2.3579,-2.3573,-2.3562,-2.3491,-2.3473,-2.3489,-2.3453,-2.3488,-2.3488,-2.3482,-2.329,-2.328,-2.3518,-2.3518,-2.3518,-2.3518,-2.3518,-2.3518,-2.396,-2.3991,-2.3942,-2.3956,-2.3914,-2.3916,-2.3901,-2.3877,-2.3845,-2.3843,-2.3833,-2.3787,-2.3736,-2.3714,-2.3702,-2.3681,-2.3682,-2.3731,-2.37,-2.3522,-2.3495,-2.3468,-2.3458,-2.3731,-2.3731,-2.3892,-2.3893,-2.3894]},{"header":{"parameterUnit":"m.s-1","parameterCategory":1,"la1":30.2991,"la2":30.254,"lo1":-89.0895,"lo2":-89.0444,"dy":0.0017,"dx":0.0017,"nx":28,"ny":28,"refTime":"2023-10-06T09:00:00:Z","depth":0,"parameterNumber":3,"parameterNumberName":"V-component_of_WINDS"},"data":[0,0,0,0,0,0,0,0,0,0,0,0,0,0,0,0,0,0,0,0,0,0,0,0,0,0,0,0,0,0,0,0,0,0,0,0,0,0,0,0,0,0,0,0,0,0,0,0,0,0,0,0,0,0,0,0,0,0,-2.7017,-2.7017,0,-2.6958,-2.6958,-2.6957,-2.6902,-2.6902,-2.6901,-2.69,-2.6838,-2.6837,-2.6836,0,0,0,0,0,0,0,0,0,0,0,0,0,-2.7078,-2.7077,-2.7017,-2.7017,-2.7016,-2.6958,-2.6958,-2.6957,-2.6903,-2.6902,-2.6901,-2.69,-2.6839,-2.6837,-2.6836,0,0,0,0,0,0,0,0,0,0,0,0,0,-2.7038,-2.7076,-2.7018,-2.6982,-2.6978,-2.6959,-2.6958,-2.6957,-2.6903,-2.6902,-2.6901,-2.69,-2.6839,-2.6838,-2.6836,-2.6846,0,0,-2.6831,-2.6831,0,0,0,0,0,0,0,0,-2.7041,-2.7036,-2.6988,-2.6984,-2.698,-2.6937,-2.6956,-2.692,-2.6903,-2.6931,-2.69,-2.6899,-2.6872,-2.6867,-2.6859,-2.6844,-2.6841,-2.6831,-2.683,-2.683,-2.6829,0,0,0,0,0,0,0,-2.7043,-2.7038,-2.6994,-2.6987,-2.6982,-2.6967,-2.696,-2.6949,-2.6908,-2.6929,-2.6925,-2.6919,-2.6869,-2.686,-2.6857,-2.684,-2.6831,-2.683,-2.6829,-2.6828,-2.6824,-2.6825,0,0,0,0,0,0,-2.7052,-2.7041,-2.6996,-2.6992,-2.7009,-2.6967,-2.6959,-2.6952,-2.6908,-2.69,-2.6919,-2.6916,-2.6863,-2.6859,-2.6854,-2.686,-2.683,-2.6828,-2.6827,-2.6824,-2.6825,-2.6825,0,0,0,0,0,0,-2.7054,-2.7049,-2.6998,-2.7015,-2.7008,-2.6967,-2.6959,-2.6951,-2.6942,-2.6901,-2.6893,-2.6918,-2.6862,-2.6856,-2.6848,-2.6857,-2.6827,-2.6826,-2.6823,-2.6824,-2.6825,-2.6874,0,0,0,0,0,0,-2.7056,-2.705,-2.7055,-2.7016,-2.7007,-2.6995,-2.6959,-2.6951,-2.6939,-2.6935,-2.6897,-2.689,-2.6861,-2.685,-2.6846,-2.6855,-2.6825,-2.6821,-2.6823,-2.6825,-2.6872,-2.6877,-2.6882,0,0,0,0,0,-2.7058,-2.7072,-2.7055,-2.705,-2.7013,-2.6995,-2.699,-2.6957,-2.6941,-2.6944,-2.6917,-2.6891,-2.6857,-2.685,-2.6845,-2.6853,-2.6821,-2.6823,-2.6824,-2.687,-2.6876,-2.6882,0,0,0,0,0,0,-2.7113,-2.7066,-2.7048,-2.705,-2.7027,-2.6986,-2.699,-2.6966,-2.6947,-2.6944,-2.6902,-2.6894,-2.6889,-2.687,-2.6863,-2.6858,-2.6835,-2.6836,-2.6871,-2.6877,-2.6882,-2.6887,-2.6823,0,0,0,0,0,-2.7126,-2.7117,-2.7075,-2.7081,-2.707,-2.7032,-2.7023,-2.6999,-2.6974,-2.6964,-2.6936,-2.6912,-2.6894,-2.6885,-2.6867,-2.6868,-2.6857,-2.6871,-2.6876,-2.688,-2.6882,-2.6876,-2.6881,-2.6832,-2.6832,-2.6831,0,0,-2.7152,-2.7125,-2.7122,-2.7091,-2.7071,-2.706,-2.7025,-2.7016,-2.7007,-2.6963,-2.6952,-2.693,-2.6899,-2.6894,-2.6891,-2.6878,-2.6892,-2.6883,-2.6886,-2.6885,-2.6878,-2.6883,-2.6887,-2.6833,-2.6833,-2.6832,0,0,-2.7193,-2.7173,-2.7173,-2.7153,-2.7122,-2.7095,-2.7095,-2.7057,-2.7041,-2.7029,-2.6995,-2.6982,-2.6955,-2.6933,-2.6919,-2.6945,-2.692,-2.6941,-2.6968,-2.6963,-2.6967,-2.697,-2.6977,-2.698,-2.6942,-2.6942,-2.6942,0,-2.7229,-2.7213,-2.7177,-2.7169,-2.7155,-2.7113,-2.7111,-2.7093,-2.7058,-2.7048,-2.7034,-2.6996,-2.6973,-2.696,-2.6966,-2.6956,-2.6952,-2.6946,-2.6969,-2.6972,-2.6974,-2.698,-2.6983,-2.6945,-2.6945,-2.6944,-2.6944,0,-2.7257,-2.7246,-2.7249,-2.7215,-2.7202,-2.7197,-2.7158,-2.7148,-2.7124,-2.7098,-2.7084,-2.7054,-2.7027,-2.7022,-2.7,-2.7005,-2.6997,-2.6977,-2.6953,-2.6982,-2.6987,-2.6989,-2.6949,-2.6948,-2.6947,-2.6946,0,0,-2.7335,-2.7277,-2.7279,-2.7261,-2.7222,-2.7211,-2.7203,-2.7177,-2.7167,-2.7143,-2.7133,-2.7108,-2.7087,-2.7071,-2.7044,-2.704,-2.7059,-2.7019,-2.7018,-2.7026,-2.7059,-2.7074,-2.7078,-2.7041,-2.7042,-2.7042,-2.7061,0,-2.7368,-2.7352,-2.7317,-2.7311,-2.7298,-2.7255,-2.7247,-2.722,-2.7194,-2.7178,-2.7149,-2.7131,-2.7106,-2.7095,-2.7089,-2.7058,-2.7065,-2.7056,-2.7029,-2.7029,-2.7038,-2.7081,-2.7098,-2.7117,-2.7063,-2.7063,-2.7063,0,-2.7406,-2.7383,-2.7376,-2.7333,-2.7326,-2.732,-2.729,-2.7276,-2.7243,-2.7224,-2.7203,-2.7172,-2.7157,-2.7135,-2.7112,-2.7107,-2.7093,-2.7075,-2.7075,-2.7071,-2.7048,-2.7076,-2.7123,-2.7126,-2.7066,-2.7066,-2.7066,0,-2.7461,-2.7428,-2.7418,-2.7404,-2.7355,-2.735,-2.7329,-2.7295,-2.728,-2.7253,-2.7242,-2.7215,-2.7199,-2.7177,-2.7138,-2.7126,-2.7118,-2.7094,-2.71,-2.7101,-2.7101,-2.7102,-2.7145,-2.7094,-2.7094,-2.7093,-2.7093,0,-2.7502,-2.7499,-2.7442,-2.7436,-2.7429,-2.7387,-2.738,-2.7355,-2.7324,-2.731,-2.7271,-2.7258,-2.7208,-2.7189,-2.7158,-2.7142,-2.7136,-2.7118,-2.711,-2.7121,-2.7123,-2.7112,-2.7109,-2.7094,-2.7094,-2.7094,-2.7094,0,-2.7563,-2.7525,-2.7511,-2.7464,-2.7451,-2.7448,-2.7406,-2.7397,-2.7367,-2.735,-2.7343,-2.7296,-2.727,-2.7229,-2.7192,-2.7171,-2.7159,-2.7146,-2.7171,-2.7166,-2.7174,-2.7173,-2.7211,-2.7212,-2.7161,-2.7162,-2.7162,0,-2.7592,-2.7588,-2.7539,-2.7527,-2.7507,-2.7488,-2.7472,-2.7428,-2.7412,-2.7371,-2.7366,-2.7337,-2.7312,-2.7272,-2.7233,-2.7203,-2.7188,-2.7203,-2.7184,-2.7194,-2.7186,-2.7187,-2.7184,-2.7208,-2.7209,-2.721,-2.721,0,-2.7646,-2.7626,-2.7605,-2.7575,-2.7557,-2.7532,-2.7504,-2.7496,-2.7445,-2.7429,-2.7402,-2.7382,-2.7342,-2.7313,-2.7276,-2.7251,-2.7221,-2.7216,-2.7216,-2.7227,-2.7241,-2.7231,-2.7182,-2.7216,-2.7215,-2.7215,-2.7215,-2.7214,-2.769,-2.7683,-2.7647,-2.7623,-2.7597,-2.7571,-2.7559,-2.7526,-2.7504,-2.7468,-2.7443,-2.7417,-2.7378,-2.7326,-2.7302,-2.7279,-2.7266,-2.7266,-2.7266,-2.7266,-2.7269,-2.7245,-2.7272,-2.7272,-2.7271,-2.7271,-2.7271,0,-2.774,-2.7714,-2.7692,-2.7654,-2.7634,-2.7607,-2.7574,-2.7559,-2.7537,-2.7504,-2.7479,-2.7445,-2.7415,-2.7372,-2.7338,-2.7327,-2.7312,-2.732,-2.732,-2.7314,-2.7284,-2.7287,-2.7332,-2.7332,-2.7332,-2.7332,-2.7332,-2.7332,-2.7765,-2.775,-2.7725,-2.7696,-2.7668,-2.7643,-2.7626,-2.76,-2.7573,-2.7538,-2.7513,-2.7485,-2.7446,-2.7408,-2.7378,-2.7365,-2.7354,-2.7366,-2.7349,-2.7322,-2.7316,-2.7311,-2.7314,-2.7364,-2.7364,-2.738,-2.738,-2.7381]}]]